COSMOS 2251 DEB, 35032

Orbit data source: Space-Track

COSMOS 2251 DEB, 35032 is space debris in LEO originally from a launch on Wed, 16 Jun 1993 UTC launched from the Plesetsk Missile And Space Complex (PKMTR). The debris from Iridium 33, an American commercial communications satellite, has been tracked extensively since its accidental collision with the defunct Russian satellite Cosmos 2251 in 2009. This event, occurring at high speed in low Earth orbit (LEO), generated thousands of pieces of space debris, significantly increasing the risk of further collisions. The Iridium 33 debris cloud has impacted space traffic management and orbital debris mitigation strategies, making it a subject of ongoing study in space situational awareness.

Loading next visibility...
Identifier
35032, 1993-036AGV
Orbit
LEO
Country
Flag of CISCIS
Related business
Manufacturer
Unknown
Mission
Spacecraft
Bus & Motor
Unknown
Mass
Unknown
Launch date (UTC)
1993-06-16 (33 years ago)
Launch vehicle
Unknown
Launch site
Plesetsk Missile And Space Complex (PKMTR)
Object type
Payload
Rocket body
Debris
Shape & HBR
Unknown shape, 0.1 m
Radar Cross Section
Small (<0.1 m²)

Expand to show TLE details & history
Last TLE update: 17 hours ago

TLE from 17 hours ago
0 COSMOS 2251 DEB
1 35032U 93036AGV 26036.59772949  .00005935  00000-0  12248-2 0  9994
2 35032  73.8488 261.5784 0066056 100.3098 289.3591 14.59255248884743
Epoch: 2026-02-05T14:20Z
TLE epoch observation values (Epoch: 2026-02-05T14:20:43.827Z)
Latitude
27.75827°
Longitude
-80.63225°
Altitude
683.468 km
Speed
7.526 km/s
True Right ascension
18h 01m 11s
True Declination
27° 36' 55"
Sunlit
Object was in daylight at epoch
Visualization orbit readout
Latitude
Unknown
Longitude
Unknown
Altitude
Unknown
Speed
Unknown
Apparent Right ascension
Unknown
Apparent Declination
Unknown
Sunlit
N/A
Visualization observer readout
Local Sidereal Time
09:27:59
Azimuth
Unknown
Elevation
Unknown
Doppler factor
Unknown
Orbital elements
Apogee altitude
739.905 km
Perigee altitude
646.484 km
Semi-major axis
7,071.331 km
Eccentricity
0.00661
Inclination
73.8488°
RAAN
261.5784°
Arg. of periapsis
100.3098°
True anomaly
288.64301°
Mean anomaly
289.3591°
Eccentric anomaly
289.00125°
Mean motion
3.64999 °/min
Orbital period
98.63 mins
BSTAR
0.0012248
Loading maneuver chart data...
Computing Atmospheric mass density...

Documentation

Showing up to 5 results
|